Regional Weather Roundup
Issued by NWS

Home | Current Version | Previous Version | Text Only | Print | Product List | Glossary On
Versions: 1 2 3 4 5 6 7 8 9 10 11 12 13 14 15 16 17 18 19 20 21 22 23 24 25 26 27 28 29 30 31 32 33 34 35 36 37 38 39 40 41 42 43 44 45 46 47 48 49 50
129
ASUS42 KTBW 241716
RWRFL
FLORIDA REGIONAL WEATHER ROUNDUP
NATIONAL WEATHER SERVICE TAMPA BAY RUSKIN FL
1200 PM EST TUE JAN 24 2017

NOTE: "FAIR" INDICATES FEW OR NO CLOUDS BELOW 12,000 FEET WITH NO
SIGNIFICANT WEATHER AND/OR OBSTRUCTIONS TO VISIBILITY.

FLZ001>010-012>015-112-114-115-241800-
PANHANDLE FLORIDA

CITY           SKY/WX    TMP DP  RH WIND       PRES   REMARKS
PENSACOLA      SUNNY     60  42  51 NW7       29.97S
PENSACOLA NAS  SUNNY     58  43  57 VRB5      29.97F
MILTON NAS     MOSUNNY   56  42  59 NW8       29.97
CRESTVIEW      SUNNY     57  40  52 VRB3      29.97F
DUKE FIELD     SUNNY     56  40  56 NW6       29.95S
VALPARAISO     SUNNY     60  41  50 N8        29.96S
MARY ESTHER    SUNNY     60  33  36 N6        29.95F
TRI COUNTY     FAIR      53  45  74 CALM      29.96F
PANAMA CITY    FAIR      60  45  57 NW5       29.94S
TYNDALL AFB    SUNNY     61  45  55 VRB7      29.95S
APALACHICOLA   SUNNY     64  44  48 VRB5      29.93F

STATION/POSITION SKY/WX   TEMP    WIND        PRES    WAVE   SWELL
                          AIR SEA DIR/SP/G            HT/PER HT/PER
                          (F)     (DEG/KT/KT) (MB)    (FT/S) (FT/S)
30.1N   87.6W              53 64   50/  4/  6 1015.3S   2/ 7   2/ 7
28.8N   86.0W              66 74              1015.1R   5/ 8   3/ 8
PANAMA CITY BEAC           54 64  260/  7/  8 1014.6R
TOWER C                    58     290/ 10/ 11 1014.4F
28.5N   84.5W              66 71  310/ 10/ 14 1014.1F   7/ 8   7/ 8

$$
FLZ011-016>038-118-127-128-134-139-239-241800-
NORTH FLORIDA

CITY           SKY/WX    TMP DP  RH WIND       PRES   REMARKS
MARIANNA       SUNNY     57  46  66 NW8       29.94S
TALLAHASSEE    SUNNY     62  45  53 VRB7      29.92F
PERRY          SUNNY     64  43  46 W7        29.92F
CROSS CITY     SUNNY     66  43  42 W10       29.92S
LAKE CITY      FAIR      63  45  51 W13G18    29.89F
GAINESVILLE    SUNNY     66  45  46 W14       29.89F
WILLISTON      SUNNY     68  46  45 W10       29.92S
PALATKA        FAIR      66  46  48 NW14G20   29.88F
MAYPORT NAS    SUNNY     66  47  50 W10G18    29.84F
JACKSONVILLE   SUNNY     67  47  48 NW15      29.84F
JAX NAS        SUNNY     66  44  45 W14       29.86F
FERNANDINA BEA FAIR      70  46  43 W14       29.82F
ST AUGUSTINE   SUNNY     67  47  48 W13G21    29.86F

STATION/POSITION SKY/WX   TEMP    WIND        PRES    WAVE   SWELL
                          AIR SEA DIR/SP/G            HT/PER HT/PER
                          (F)     (DEG/KT/KT) (MB)    (FT/S) (FT/S)
SHELL POINT      NOT AVBL
KEATON BEACH               57     280/  9/ 11 1013.1F
CEDAR KEY                  61     290/  9/ 12 1014.0R
FERNANDINA                 63 64  280/ 10/ 16 1010.9F
30.7N   81.3W                 62                N/A     2/13   2/13
MAYPORT                    63 63  280/ 12/ 16 1010.7F
31.4N   80.9W              58 59  270/ 14/ 16 1008.9F   3/ 4   2/13
ST AUGUSTINE               66 63  270/ 11/ 14 1011.5F

$$
FLZ040-043>046-052-053-057-058-063-144-241800-
INTERIOR CENTRAL FLORIDA

CITY           SKY/WX    TMP DP  RH WIND       PRES   REMARKS
OCALA          SUNNY     66  46  48 NW12      29.92S
THE VILLAGES     N/A     68  54  60 S13       29.81F
SANFORD        SUNNY     70  45  40 W18G25    29.88F
ORLANDO EXEC   SUNNY     69  47  45 W16       29.90F
ORLANDO INTL   SUNNY     70  47  43 W12G24    29.90F
KISSIMMEE      SUNNY     70  49  47 W14G20    29.91F
WINTER HAVEN   SUNNY     70  47  43 W16       29.93F
LAKELAND       SUNNY     70  52  52 W12G21    29.93F
BARTOW         SUNNY     68  50  52 W17G23    29.92F
OKEECHOBEE     SUNNY     72  50  46 W17       29.92F

$$
FLZ041-047-054-059-064-141-147-241800-
EAST CENTRAL FLORIDA

CITY           SKY/WX    TMP DP  RH WIND       PRES   REMARKS
ORMOND BEACH   SUNNY     66  48  52 W15G21    29.87F
DAYTONA BEACH  SUNNY     68  46  45 W17G24    29.86F
DELAND         SUNNY     68  46  45 W16       29.87F
JFK SPACE CTR  SUNNY     70  47  44 W17G23    29.86F
TITUSVILLE     SUNNY     66  45  45 W17G23    29.88F
CAPE CANAVERAL SUNNY     71  48  45 W17       29.86F
PATRICK AFB    SUNNY     71  48  43 W22       29.87F
MELBOURNE      SUNNY     71  47  42 W18G26    29.88F
VERO BEACH     SUNNY     72  48  42 W22       29.89F
FT PIERCE      SUNNY     72  49  44 NW16      29.89F
STUART         SUNNY     75  50  41 W14G23    29.91F

STATION/POSITION SKY/WX   TEMP    WIND        PRES    WAVE   SWELL
                          AIR SEA DIR/SP/G            HT/PER HT/PER
                          (F)     (DEG/KT/KT) (MB)    (FT/S) (FT/S)
TRIDENT PIER               68 70  290/ 11/ 16 1012.6F
28.4N   80.5W                 73                N/A     2/13
27.5N   80.2W                 73                N/A     4/11   2/11

$$
FLZ050-056-061-142-242-148-248-149-249-151-251-155-255-
160-260-241800-
WEST CENTRAL FLORIDA

CITY           SKY/WX    TMP DP  RH WIND       PRES   REMARKS
CRYSTAL RIVER  FAIR      64  52  63 W13G20    29.94S
INVERNESS      FAIR      68  50  52 NW8       29.93S
BROOKSVILLE    SUNNY     69  48  47 W17G23    29.94S
CLEARWATER AIR FAIR      66  54  63 NW10G16   29.95S
ST PETE CLEARW SUNNY     70  54  56 NW14      29.94F
TAMPA INTL     MOSUNNY   71  54  54 NW14      29.94S
TAMPA EXEC     SUNNY     73  54  49 NW7G17    29.94S
PLANT CITY     SUNNY     72  54  53 NW12G25   29.95S
MACDILL AFB    SUNNY     71  58  62 NW10G17   29.94S
ST PETERSBURG  SUNNY     67  55  65 NW14      29.92F
SARASOTA       SUNNY     72  56  57 NW13      29.93S
VENICE         FAIR      70  61  73 NW12      29.95S

STATION/POSITION SKY/WX   TEMP    WIND        PRES    WAVE   SWELL
                          AIR SEA DIR/SP/G            HT/PER HT/PER
                          (F)     (DEG/KT/KT) (MB)    (FT/S) (FT/S)
27.3N   84.2W                 76                N/A     9/11   3/11
CLEARWATER BEACH           64 67  320/ 13/ 14 1014.4S
MIDDLE TAMPA BAY           66     310/ 13/ 15 1014.3R
VENICE                     67 69  310/ 11/ 12 1013.7S

$$
FLZ066-069-070-075>078-162-262-165-265-241800-
SOUTHWEST FLORIDA AND KEYS

CITY           SKY/WX    TMP DP  RH WIND       PRES   REMARKS
PUNTA GORDA    MOSUNNY   73  57  57 NW10      29.95F
FT MYERS       SUNNY     75  58  55 NW13G23   29.93F
SOUTHWEST INTL SUNNY     74  56  53 W12G21    29.94F
NAPLES         MOSUNNY   72  60  66 W8        29.94F
MARCO ISLAND   MOSUNNY   68  57  68 NW10      29.95S
MARATHON       SUNNY     77  62  59 W8        29.96F
KEY WEST NAS   MOSUNNY   75  61  61 VRB7      29.97F
KEY WEST INTL  SUNNY     76  61  59 NW12      29.98S

STATION/POSITION SKY/WX   TEMP    WIND        PRES    WAVE   SWELL
                          AIR SEA DIR/SP/G            HT/PER HT/PER
                          (F)     (DEG/KT/KT) (MB)    (FT/S) (FT/S)
NAPLES                        70              1014.0F
26.0N   85.6W              71 75  270/  8/ 10 1015.8R   7/ 9   7/ 9
DRY TORTUGAS               73     330/  7/  7 1015.1F
SAND KEY                   72     320/ 10/ 12 1015.6F
LONG KEY                   69 71  350/  5/  6 1015.0R
MOLASSES REEF              69 73  310/ 12/ 13 1014.8R

$$
FLZ067-068-071>074-168-172>174-241800-
SOUTHEAST FLORIDA

CITY           SKY/WX    TMP DP  RH WIND       PRES   REMARKS
W PALM BEACH   SUNNY     72  51  47 W16G22    29.91F
BOCA RATON     SUNNY     72  54  53 NW15G25   29.92F
FT LAUDER-EXEC SUNNY     73  50  44 W14       29.92F
FT LAUDERDALE  SUNNY     73  53  49 W13G20    29.91F
POMPANO BEACH  SUNNY     74  53  48 W14       29.92F
PEMBROKE PINES SUNNY     74  53  48 W13       29.94F
OPA LOCKA      SUNNY    N/A N/A N/A NW10G16   29.93F
MIAMI          SUNNY     75  55  49 W9        29.93F
WEST KENDALL   SUNNY     76  55  48 NW12      29.93F
HOMESTEAD      SUNNY     74  57  54 NW10      29.92F

STATION/POSITION SKY/WX   TEMP    WIND        PRES    WAVE   SWELL
                          AIR SEA DIR/SP/G            HT/PER HT/PER
                          (F)     (DEG/KT/KT) (MB)    (FT/S) (FT/S)
PORT EVERGLADES            70     300/ 12/ 18 1013.2F
VIRGINIA KEY               71 78  310/  9/ 11 1013.9F
FOWEY ROCKS                69 73  300/ 11/ 13 1014.2F

$$





USA.gov is the U.S. government's official web portal to all federal, state and local government web resources and services.